This demonstration page uses our WeatherBlox Daily Observations layout. Learn more.

39.92423, -83.80882

Hourly Observations for September 11, 2020

Temp ( °F °C ) Dew Point ( °F °C ) Humidity (%) Winds ( mph kmh ) Pressure ( in mb ) Visibility ( mi km ) Precip ( " mm )
12:56 am 00:56 Cloudy 65 18.3 65 18.3 100 100 NE 10 17 30.24 1024 10 16.0934 0 0
1:56 am 01:56 Cloudy 65 18.3 65 18.3 100 100 NE 9 15 30.24 1024 10 16.0934 0 0
2:12 am 02:12 Cloudy 64 18 64 18 100 100 NE 10 17 30.24 1024 10 16.0934 0 0
2:56 am 02:56 Cloudy 65 18.3 65 18.3 100 100 NE 10 17 30.24 1024 10 16.0934 0 0
3:56 am 03:56 Cloudy 65 18.3 65 18.3 100 100 NE 9 15 30.25 1024 10 16.0934 0 0
4:56 am 04:56 Cloudy 64 17.8 64 17.8 100 100 NE 14 22 30.25 1024 10 16.0934 0 0
5:56 am 05:56 Cloudy 63 17.2 63 17.2 100 100 NE 13 20 30.25 1024 10 16.0934 0 0
6:49 am 06:49 Cloudy 63 17 63 17 100 100 NE 13 20 30.25 1024 10 16.0934 0 0
6:56 am 06:56 Cloudy 61 16.1 61 16.1 100 100 NE 13 20 30.26 1025 10 16.0934 0 0
7:31 am 07:31 Cloudy 63 17 63 17 100 100 ENE 9 15 30.26 1025 10 16.0934 0 0
7:56 am 07:56 Cloudy 61 16.1 61 16.1 100 100 ENE 9 15 30.28 1025 10 16.0934 0 0
8:56 am 08:56 Cloudy 61 16.1 61 16.1 100 100 NE 9 15 30.28 1025 10 16.0934 0 0
9:56 am 09:56 Cloudy 63 17.2 62 16.7 97 97 ENE 8 13 30.28 1026 10 16.0934 0 0
10:56 am 10:56 Cloudy 64 17.8 62 16.7 93 93 ENE 10 17 30.29 1026 10 16.0934 0 0
11:56 am 11:56 Cloudy 64 17.8 62 16.7 93 93 ENE 9 15 30.29 1026 10 16.0934 0 0
12:42 pm 12:42 Cloudy 64 18 63 17 94 94 NE 10 17 30.28 1025 10 16.0934 0 0
12:56 pm 12:56 Cloudy 65 18.3 62 16.7 90 90 ENE 10 17 30.29 1026 10 16.0934 0 0
1:56 pm 13:56 Cloudy 66 18.9 63 17.2 90 90 NE 9 15 30.28 1025 10 16.0934 0 0
2:56 pm 14:56 Cloudy 67 19.4 63 17.2 87 87 NE 9 15 30.26 1025 10 16.0934 0 0
3:43 pm 15:43 Cloudy 68 20 63 17 83 83 ENE 8 13 30.22 1023 10 16.0934 0 0
3:56 pm 15:56 Cloudy 68 20 63 17.2 84 84 E 8 13 30.24 1024 10 16.0934 0 0
4:56 pm 16:56 Cloudy 69 20.6 64 17.8 84 84 ENE 9 15 30.22 1023 10 16.0934 0 0
5:56 pm 17:56 Cloudy 68 20 64 17.8 87 87 E 7 11 30.21 1023 10 16.0934 0 0
6:56 pm 18:56 Cloudy 67 19.4 63 17.2 87 87 ENE 10 17 30.2 1023 10 16.0934 0 0
7:56 pm 19:56 Cloudy 67 19.4 64 17.8 91 91 ENE 12 19 30.19 1023 10 16.0934 0 0
8:56 pm 20:56 Cloudy 66 18.9 63 17.2 90 90 ENE 9 15 30.2 1023 10 16.0934 0 0
9:56 pm 21:56 Cloudy 66 18.9 63 17.2 90 90 E 7 11 30.21 1023 10 16.0934 0 0
10:56 pm 22:56 Cloudy 65 18.3 63 17.2 93 93 E 9 15 30.19 1023 10 16.0934 0 0
11:56 pm 23:56 Cloudy 64 17.8 62 16.7 93 93 E 7 11 30.2 1023 10 16.0934 0 0

Powered by AerisWeather